Location: Castillon
(43.0896°N, 0.2156°E)
Time: 00:47:44
(UTC+00:00)

Geosat - Visible Passes

Search period start: 24 October 2021 00:00
Search period end: 03 November 2021 00:00
Orbit: 763 x 765 km, 108.0° (Epoch: 23 October)

Date Brightness Start Highest point End Pass type
(mag) Time Alt. Az. Time Alt. Az. Time Alt. Az.
25 Oct 6.3 05:32:44 10° E 05:36:28 22° NE 05:40:13 10° N visible
26 Oct 6.7 04:58:41 10° ENE 05:00:11 11° NE 05:01:41 10° NNE visible
27 Oct 5.9 05:56:19 10° ESE 06:00:31 28° NE 06:04:43 10° N visible
28 Oct 6.5 05:21:30 10° ENE 05:24:08 14° NE 05:26:47 10° N visible
30 Oct 6.4 05:44:47 10° E 05:48:08 18° NE 05:51:30 10° N visible
02 Nov 6.6 05:33:53 10° ENE 05:35:50 12° NE 05:37:48 10° NNE visible
